AirNav   Air Wisconsin pilot careers
 
 386 users online  

9OA8 Crocker Airport
Columbia Station, Ohio, USA

GOING TO COLUMBIA STATION?


FAA INFORMATION EFFECTIVE 01 FEBRUARY 2018

Location

FAA Identifier: 9OA8
Lat/Long: 41-16-56.1880N / 081-56-56.4990W
41-16.936467N / 081-56.941650W
41.2822744 / -81.9490275
(estimated)
Elevation: 830 ft. / 253 m (estimated)
Variation: 06W (1985)
From city: 3 miles S of COLUMBIA STATION, OH
Time zone: UTC -5 (UTC -4 during Daylight Saving Time)
Zip code: 44028

Airport Operations

Airport use: Private use. Permission required prior to landing
Activation date: 10/1953
Control tower: no
ARTCC: CLEVELAND CENTER
FSS: CLEVELAND FLIGHT SERVICE STATION
Attendance: UNATNDD
Wind indicator: no
Segmented circle: no

Airport Communications

WX ASOS at CLE (9 nm NE): PHONE 216-267-9955
WX ASOS at LPR (11 nm W): 121.425 (440-323-7088)
WX ASOS at BKL (19 nm NE): 125.25 (216-241-6904)

Nearby radio navigation aids

VOR radial/distance  VOR name  Freq  Var
DJBr120/10.6DRYER VOR/DME113.6005W
ACOr291/35.3AKRON VOR/DME114.4004W
CXRr253/38.1CHARDON VOR/DME112.7005W
MFDr052/38.2MANSFIELD VORTAC108.8003W

 
NDB name  Hdg/Dist  Freq  Var  ID
LAKELAND235/35.126308WLQL .-.. --.- .-..

Airport Services

Runway Information

Runway E/W

Dimensions: 1700 x 50 ft. / 518 x 15 m
Surface: turf
RUNWAY E  RUNWAY W
Traffic pattern: leftleft

Airport Ownership and Management from official FAA records

Ownership: Privately-owned
Owner: GARY CROCKER
4479 FREDERICKSBURG ROAD
WOOSTER, OH 44691
Phone 216-264-8776

Additional Remarks

EMERGENCY USE ONLY.

Instrument Procedures

There are no published instrument procedures at 9OA8.

Some nearby airports with instrument procedures:

1G1 - Elyria Airport (7 nm NW)
KCLE - Cleveland-Hopkins International Airport (9 nm NE)
KLPR - Lorain County Regional Airport (11 nm W)
1G5 - Medina Municipal Airport (12 nm SE)
KBKL - Burke Lakefront Airport (19 nm NE)
3G3 - Wadsworth Municipal Airport (19 nm SE)
 
Loc | Ops | Rwys | IFR | FBO | Links
Com | Nav | Svcs | Stats | Notes

AirNav Hotels Sweepstakes
 
Area around 9OA8 (Crocker Airport)
 
Road maps at: MapQuest Bing Google
 
Aerial photo
No photo
 
Sectional chart

 
Airport distance calculator
Flying to Crocker Airport? Find the distance to fly.

From to 9OA8

Sunrise and sunset
Times for 24-Feb-2018
 Local
(UTC-5)
 Zulu
(UTC)
Morning civil twilight06:4311:43
Sunrise07:1112:11
Sunset18:1123:11
Evening civil twilight18:3923:39

Current date and time
Zulu (UTC)  24-Feb-2018 08:05:37
Local (UTC-5)  24-Feb-2018 03:05:37
 
METAR
KCLE 
9nm NE 
240758Z 35006KT 10SM OVC012 07/04 A3024 RMK AO2 T00670039
KLPR 
11nm W 
240753Z AUTO 36007KT 10SM OVC012 06/02 A3022 RMK AO2 SLP236 T00560017
KBKL 
20nm NE 
240753Z AUTO 30003KT 8SM OVC018 04/03 A3022 RMK AO2 SLP235 T00390028
TAF
KCLE 
9nm NE 
240539Z 2406/2512 31004KT P6SM SCT006 OVC012 FM240900 VRB03KT P6SM OVC005 FM241500 05005KT 6SM -RA SCT005 OVC012 FM242100 06007KT P6SM VCSH SCT005 OVC012 FM250200 12010KT 2SM -RA BR OVC003 FM250600 16014G22KT 5SM -RA BKN006 OVC012 FM251100 21015G30KT P6SM BKN015 OVC045
NOTAMs
Click for the latest NOTAMs
NOTAMs are issued by the DoD/FAA and will open in a separate window not controlled by AirNav.

 

 
 

Would you like to see your business listed on this page?

 If your business provides an interesting product or service to pilots, flight crews, aircraft, or users of the Crocker Airport, you should consider listing it here.  To start the listing process, click on the button below
 
Add a business
 

Other Pages about Crocker Airport

Update a link
 
Copyright © AirNav, LLC. All rights reserved. Privacy Policy  Contact